owner,sensor,date,latitude,longitude,air_pressure(mBar),qcFlag 
WAVCIS,ioos:station:WAVCIS:CSI06:1,2015-10-01T00:00:00Z,28.8667,-90.4833,1009.43,11111222 
WAVCIS,ioos:station:WAVCIS:CSI06:1,2015-10-01T01:00:00Z,28.8667,-90.4833,1009.94,11111222 
WAVCIS,ioos:station:WAVCIS:CSI06:1,2015-10-01T02:00:00Z,28.8667,-90.4833,1010.4,11111222 
WAVCIS,ioos:station:WAVCIS:CSI06:1,2015-10-01T03:00:00Z,28.8667,-90.4833,1010.98,11111222 
WAVCIS,ioos:station:WAVCIS:CSI06:1,2015-10-01T04:00:00Z,28.8667,-90.4833,1011.06,11111222 
WAVCIS,ioos:station:WAVCIS:CSI06:1,2015-10-01T05:00:00Z,28.8667,-90.4833,1010.85,11111222 
WAVCIS,ioos:station:WAVCIS:CSI06:1,2015-10-01T06:00:00Z,28.8667,-90.4833,1010.65,11111222 
WAVCIS,ioos:station:WAVCIS:CSI06:1,2015-10-01T07:00:00Z,28.8667,-90.4833,1010.67,11111222 
WAVCIS,ioos:station:WAVCIS:CSI06:1,2015-10-01T08:00:00Z,28.8667,-90.4833,1010.44,11111222 
WAVCIS,ioos:station:WAVCIS:CSI06:1,2015-10-01T09:00:00Z,28.8667,-90.4833,1010.38,11111222 
WAVCIS,ioos:station:WAVCIS:CSI06:1,2015-10-01T10:00:00Z,28.8667,-90.4833,1010.62,11111222 
WAVCIS,ioos:station:WAVCIS:CSI06:1,2015-10-01T11:00:00Z,28.8667,-90.4833,1011.05,11111222 
WAVCIS,ioos:station:WAVCIS:CSI06:1,2015-10-01T12:00:00Z,28.8667,-90.4833,1011.81,11111222 
WAVCIS,ioos:station:WAVCIS:CSI06:1,2015-10-01T13:00:00Z,28.8667,-90.4833,1012.13,11111222 
WAVCIS,ioos:station:WAVCIS:CSI06:1,2015-10-01T14:00:00Z,28.8667,-90.4833,1012.57,11111222 
WAVCIS,ioos:station:WAVCIS:CSI06:1,2015-10-01T15:00:00Z,28.8667,-90.4833,1012.74,11111222 
WAVCIS,ioos:station:WAVCIS:CSI06:1,2015-10-01T16:00:00Z,28.8667,-90.4833,1012.82,11111222 
WAVCIS,ioos:station:WAVCIS:CSI06:1,2015-10-01T17:00:00Z,28.8667,-90.4833,1012.52,11111222 
WAVCIS,ioos:station:WAVCIS:CSI06:1,2015-10-01T18:00:00Z,28.8667,-90.4833,1012.08,11111222 
WAVCIS,ioos:station:WAVCIS:CSI06:1,2015-10-01T19:00:00Z,28.8667,-90.4833,1010.97,11111222 
WAVCIS,ioos:station:WAVCIS:CSI06:1,2015-10-01T20:00:00Z,28.8667,-90.4833,1010.51,11111222 
WAVCIS,ioos:station:WAVCIS:CSI06:1,2015-10-01T21:00:00Z,28.8667,-90.4833,1010.23,11111222 
WAVCIS,ioos:station:WAVCIS:CSI06:1,2015-10-01T22:00:00Z,28.8667,-90.4833,1010.01,11111222 
WAVCIS,ioos:station:WAVCIS:CSI06:1,2015-10-01T23:00:00Z,28.8667,-90.4833,1009.97,11111222 
WAVCIS,ioos:station:WAVCIS:CSI06:1,2015-10-02T00:00:00Z,28.8667,-90.4833,1009.99,11111222 
WAVCIS,ioos:station:WAVCIS:CSI06:1,2015-10-02T01:00:00Z,28.8667,-90.4833,1010.33,11111222 
WAVCIS,ioos:station:WAVCIS:CSI06:1,2015-10-02T02:00:00Z,28.8667,-90.4833,1010.95,11111222 
WAVCIS,ioos:station:WAVCIS:CSI06:1,2015-10-02T03:00:00Z,28.8667,-90.4833,1011.25,11111222 
WAVCIS,ioos:station:WAVCIS:CSI06:1,2015-10-02T04:00:00Z,28.8667,-90.4833,1011.4,11111222 
WAVCIS,ioos:station:WAVCIS:CSI06:1,2015-10-02T05:00:00Z,28.8667,-90.4833,1011.4,11111222 
WAVCIS,ioos:station:WAVCIS:CSI06:1,2015-10-02T06:00:00Z,28.8667,-90.4833,1011.08,11111222 
WAVCIS,ioos:station:WAVCIS:CSI06:1,2015-10-02T07:00:00Z,28.8667,-90.4833,1010.85,11111222 
WAVCIS,ioos:station:WAVCIS:CSI06:1,2015-10-02T08:00:00Z,28.8667,-90.4833,1010.41,11111222 
WAVCIS,ioos:station:WAVCIS:CSI06:1,2015-10-02T09:00:00Z,28.8667,-90.4833,1010.21,11111222 
WAVCIS,ioos:station:WAVCIS:CSI06:1,2015-10-02T10:00:00Z,28.8667,-90.4833,1009.85,11111222 
WAVCIS,ioos:station:WAVCIS:CSI06:1,2015-10-02T11:00:00Z,28.8667,-90.4833,1010.23,11111222 
WAVCIS,ioos:station:WAVCIS:CSI06:1,2015-10-02T12:00:00Z,28.8667,-90.4833,1010.6,11111222 
WAVCIS,ioos:station:WAVCIS:CSI06:1,2015-10-02T13:00:00Z,28.8667,-90.4833,1010.81,11111222 
WAVCIS,ioos:station:WAVCIS:CSI06:1,2015-10-02T14:00:00Z,28.8667,-90.4833,1010.86,11111222 
WAVCIS,ioos:station:WAVCIS:CSI06:1,2015-10-02T15:00:00Z,28.8667,-90.4833,1011.06,11111222 
WAVCIS,ioos:station:WAVCIS:CSI06:1,2015-10-02T16:00:00Z,28.8667,-90.4833,1010.87,11111222 
WAVCIS,ioos:station:WAVCIS:CSI06:1,2015-10-02T17:00:00Z,28.8667,-90.4833,1010.42,11111222 
WAVCIS,ioos:station:WAVCIS:CSI06:1,2015-10-02T18:00:00Z,28.8667,-90.4833,1009.74,11111222 
WAVCIS,ioos:station:WAVCIS:CSI06:1,2015-10-02T19:00:00Z,28.8667,-90.4833,1009.09,11111222 
WAVCIS,ioos:station:WAVCIS:CSI06:1,2015-10-02T20:00:00Z,28.8667,-90.4833,1008.33,11111222 
WAVCIS,ioos:station:WAVCIS:CSI06:1,2015-10-02T21:00:00Z,28.8667,-90.4833,1007.92,11111222 
WAVCIS,ioos:station:WAVCIS:CSI06:1,2015-10-02T22:00:00Z,28.8667,-90.4833,1007.74,11111222 
WAVCIS,ioos:station:WAVCIS:CSI06:1,2015-10-02T23:00:00Z,28.8667,-90.4833,1007.63,11111222 
WAVCIS,ioos:station:WAVCIS:CSI06:1,2015-10-03T00:00:00Z,28.8667,-90.4833,1007.84,11111222 
WAVCIS,ioos:station:WAVCIS:CSI06:1,2015-10-03T01:00:00Z,28.8667,-90.4833,1008.43,11111222 
WAVCIS,ioos:station:WAVCIS:CSI06:1,2015-10-03T02:00:00Z,28.8667,-90.4833,1009.01,11111222 
WAVCIS,ioos:station:WAVCIS:CSI06:1,2015-10-03T03:00:00Z,28.8667,-90.4833,1009.31,11111222 
WAVCIS,ioos:station:WAVCIS:CSI06:1,2015-10-03T04:00:00Z,28.8667,-90.4833,1009.6,11111222 
WAVCIS,ioos:station:WAVCIS:CSI06:1,2015-10-03T05:00:00Z,28.8667,-90.4833,1009.51,11111222 
WAVCIS,ioos:station:WAVCIS:CSI06:1,2015-10-03T06:00:00Z,28.8667,-90.4833,1009.07,11111222 
WAVCIS,ioos:station:WAVCIS:CSI06:1,2015-10-03T07:00:00Z,28.8667,-90.4833,1008.47,11111222 
WAVCIS,ioos:station:WAVCIS:CSI06:1,2015-10-03T08:00:00Z,28.8667,-90.4833,1008.35,11111222 
WAVCIS,ioos:station:WAVCIS:CSI06:1,2015-10-03T09:00:00Z,28.8667,-90.4833,1008.37,11111222 
WAVCIS,ioos:station:WAVCIS:CSI06:1,2015-10-03T10:00:00Z,28.8667,-90.4833,1008.61,11111222 
WAVCIS,ioos:station:WAVCIS:CSI06:1,2015-10-03T11:00:00Z,28.8667,-90.4833,1008.7,11111222 
WAVCIS,ioos:station:WAVCIS:CSI06:1,2015-10-03T12:00:00Z,28.8667,-90.4833,1009.12,11111222 
WAVCIS,ioos:station:WAVCIS:CSI06:1,2015-10-03T13:00:00Z,28.8667,-90.4833,1009.0,11111222 
WAVCIS,ioos:station:WAVCIS:CSI06:1,2015-10-03T14:00:00Z,28.8667,-90.4833,1009.31,11111222 
WAVCIS,ioos:station:WAVCIS:CSI06:1,2015-10-03T15:00:00Z,28.8667,-90.4833,1009.4,11111222 
WAVCIS,ioos:station:WAVCIS:CSI06:1,2015-10-03T16:00:00Z,28.8667,-90.4833,1009.77,11111222 
WAVCIS,ioos:station:WAVCIS:CSI06:1,2015-10-03T17:00:00Z,28.8667,-90.4833,1009.76,11111222 
WAVCIS,ioos:station:WAVCIS:CSI06:1,2015-10-03T18:00:00Z,28.8667,-90.4833,1009.16,11111222 
WAVCIS,ioos:station:WAVCIS:CSI06:1,2015-10-03T19:00:00Z,28.8667,-90.4833,1008.65,11111222 
WAVCIS,ioos:station:WAVCIS:CSI06:1,2015-10-03T20:00:00Z,28.8667,-90.4833,1008.28,11111222 
WAVCIS,ioos:station:WAVCIS:CSI06:1,2015-10-03T21:00:00Z,28.8667,-90.4833,1008.02,11111222 
WAVCIS,ioos:station:WAVCIS:CSI06:1,2015-10-03T22:00:00Z,28.8667,-90.4833,1008.16,11111222 
WAVCIS,ioos:station:WAVCIS:CSI06:1,2015-10-03T23:00:00Z,28.8667,-90.4833,1008.29,11111222 
WAVCIS,ioos:station:WAVCIS:CSI06:1,2015-10-04T00:00:00Z,28.8667,-90.4833,1008.64,11111222 
WAVCIS,ioos:station:WAVCIS:CSI06:1,2015-10-04T01:00:00Z,28.8667,-90.4833,1009.32,11111222 
WAVCIS,ioos:station:WAVCIS:CSI06:1,2015-10-04T02:00:00Z,28.8667,-90.4833,1010.09,11111222 
WAVCIS,ioos:station:WAVCIS:CSI06:1,2015-10-04T03:00:00Z,28.8667,-90.4833,1010.43,11111222 
WAVCIS,ioos:station:WAVCIS:CSI06:1,2015-10-04T04:00:00Z,28.8667,-90.4833,1010.9,11111222 
WAVCIS,ioos:station:WAVCIS:CSI06:1,2015-10-04T05:00:00Z,28.8667,-90.4833,1010.94,11111222 
WAVCIS,ioos:station:WAVCIS:CSI06:1,2015-10-04T06:00:00Z,28.8667,-90.4833,1010.71,11111222 
WAVCIS,ioos:station:WAVCIS:CSI06:1,2015-10-04T07:00:00Z,28.8667,-90.4833,1010.58,11111222 
WAVCIS,ioos:station:WAVCIS:CSI06:1,2015-10-04T08:00:00Z,28.8667,-90.4833,1010.33,11111222 
WAVCIS,ioos:station:WAVCIS:CSI06:1,2015-10-04T09:00:00Z,28.8667,-90.4833,1010.26,11111222 
WAVCIS,ioos:station:WAVCIS:CSI06:1,2015-10-04T10:00:00Z,28.8667,-90.4833,1010.38,11111222 
WAVCIS,ioos:station:WAVCIS:CSI06:1,2015-10-04T11:00:00Z,28.8667,-90.4833,1010.87,11111222 
WAVCIS,ioos:station:WAVCIS:CSI06:1,2015-10-04T12:00:00Z,28.8667,-90.4833,1011.0,11111222 
WAVCIS,ioos:station:WAVCIS:CSI06:1,2015-10-04T13:00:00Z,28.8667,-90.4833,1011.7,11111222 
WAVCIS,ioos:station:WAVCIS:CSI06:1,2015-10-04T14:00:00Z,28.8667,-90.4833,1012.32,11111222 
WAVCIS,ioos:station:WAVCIS:CSI06:1,2015-10-04T15:00:00Z,28.8667,-90.4833,1012.69,11111222 
WAVCIS,ioos:station:WAVCIS:CSI06:1,2015-10-04T16:00:00Z,28.8667,-90.4833,1012.68,11111222 
WAVCIS,ioos:station:WAVCIS:CSI06:1,2015-10-04T17:00:00Z,28.8667,-90.4833,1012.8,11111222 
WAVCIS,ioos:station:WAVCIS:CSI06:1,2015-10-04T18:00:00Z,28.8667,-90.4833,1012.58,11111222 
WAVCIS,ioos:station:WAVCIS:CSI06:1,2015-10-04T19:00:00Z,28.8667,-90.4833,1012.04,11111222 
WAVCIS,ioos:station:WAVCIS:CSI06:1,2015-10-04T20:00:00Z,28.8667,-90.4833,1011.54,11111222 
WAVCIS,ioos:station:WAVCIS:CSI06:1,2015-10-04T21:00:00Z,28.8667,-90.4833,1011.04,11111222 
WAVCIS,ioos:station:WAVCIS:CSI06:1,2015-10-04T22:00:00Z,28.8667,-90.4833,1010.8,11111222 
WAVCIS,ioos:station:WAVCIS:CSI06:1,2015-10-04T23:00:00Z,28.8667,-90.4833,1011.03,11111222 
WAVCIS,ioos:station:WAVCIS:CSI06:1,2015-10-05T00:00:00Z,28.8667,-90.4833,1011.44,11111222 
WAVCIS,ioos:station:WAVCIS:CSI06:1,2015-10-05T01:00:00Z,28.8667,-90.4833,1012.04,11111222 
WAVCIS,ioos:station:WAVCIS:CSI06:1,2015-10-05T02:00:00Z,28.8667,-90.4833,1012.52,11111222 
WAVCIS,ioos:station:WAVCIS:CSI06:1,2015-10-05T03:00:00Z,28.8667,-90.4833,1012.96,11111222 
WAVCIS,ioos:station:WAVCIS:CSI06:1,2015-10-05T04:00:00Z,28.8667,-90.4833,1013.38,11111222 
WAVCIS,ioos:station:WAVCIS:CSI06:1,2015-10-05T05:00:00Z,28.8667,-90.4833,1013.52,11111222 
WAVCIS,ioos:station:WAVCIS:CSI06:1,2015-10-05T06:00:00Z,28.8667,-90.4833,1013.33,11111222 
WAVCIS,ioos:station:WAVCIS:CSI06:1,2015-10-05T07:00:00Z,28.8667,-90.4833,1012.99,11111222 
WAVCIS,ioos:station:WAVCIS:CSI06:1,2015-10-05T08:00:00Z,28.8667,-90.4833,1012.43,11111222 
WAVCIS,ioos:station:WAVCIS:CSI06:1,2015-10-05T09:00:00Z,28.8667,-90.4833,1012.43,11111222 
WAVCIS,ioos:station:WAVCIS:CSI06:1,2015-10-05T10:00:00Z,28.8667,-90.4833,1012.59,11111222 
WAVCIS,ioos:station:WAVCIS:CSI06:1,2015-10-05T11:00:00Z,28.8667,-90.4833,1012.65,11111222 
WAVCIS,ioos:station:WAVCIS:CSI06:1,2015-10-05T12:00:00Z,28.8667,-90.4833,1013.51,11111222 
WAVCIS,ioos:station:WAVCIS:CSI06:1,2015-10-05T13:00:00Z,28.8667,-90.4833,1014.15,11111222 
WAVCIS,ioos:station:WAVCIS:CSI06:1,2015-10-05T14:00:00Z,28.8667,-90.4833,1014.74,11111222 
WAVCIS,ioos:station:WAVCIS:CSI06:1,2015-10-05T15:00:00Z,28.8667,-90.4833,1015.11,11111222 
WAVCIS,ioos:station:WAVCIS:CSI06:1,2015-10-05T16:00:00Z,28.8667,-90.4833,1015.08,11111222 
WAVCIS,ioos:station:WAVCIS:CSI06:1,2015-10-05T17:00:00Z,28.8667,-90.4833,1015.3,11111222 
WAVCIS,ioos:station:WAVCIS:CSI06:1,2015-10-05T18:00:00Z,28.8667,-90.4833,1014.73,11111222 
WAVCIS,ioos:station:WAVCIS:CSI06:1,2015-10-05T19:00:00Z,28.8667,-90.4833,1014.07,11111222 
WAVCIS,ioos:station:WAVCIS:CSI06:1,2015-10-05T20:00:00Z,28.8667,-90.4833,1013.18,11111222 
WAVCIS,ioos:station:WAVCIS:CSI06:1,2015-10-05T21:00:00Z,28.8667,-90.4833,1012.99,11111222 
WAVCIS,ioos:station:WAVCIS:CSI06:1,2015-10-05T22:00:00Z,28.8667,-90.4833,1013.18,11111222 
WAVCIS,ioos:station:WAVCIS:CSI06:1,2015-10-05T23:00:00Z,28.8667,-90.4833,1013.49,11111222 
WAVCIS,ioos:station:WAVCIS:CSI06:1,2015-10-06T00:00:00Z,28.8667,-90.4833,1013.83,11111222 
WAVCIS,ioos:station:WAVCIS:CSI06:1,2015-10-06T01:00:00Z,28.8667,-90.4833,1014.58,11111222 
WAVCIS,ioos:station:WAVCIS:CSI06:1,2015-10-06T02:00:00Z,28.8667,-90.4833,1015.17,11111222 
WAVCIS,ioos:station:WAVCIS:CSI06:1,2015-10-06T03:00:00Z,28.8667,-90.4833,1015.44,11111222 
WAVCIS,ioos:station:WAVCIS:CSI06:1,2015-10-06T04:00:00Z,28.8667,-90.4833,1015.47,11111222 
WAVCIS,ioos:station:WAVCIS:CSI06:1,2015-10-06T05:00:00Z,28.8667,-90.4833,1015.32,11111222 
WAVCIS,ioos:station:WAVCIS:CSI06:1,2015-10-06T06:00:00Z,28.8667,-90.4833,1015.22,11111222 
WAVCIS,ioos:station:WAVCIS:CSI06:1,2015-10-06T07:00:00Z,28.8667,-90.4833,1014.8,11111222 
WAVCIS,ioos:station:WAVCIS:CSI06:1,2015-10-06T08:00:00Z,28.8667,-90.4833,1014.65,11111222 
WAVCIS,ioos:station:WAVCIS:CSI06:1,2015-10-06T09:00:00Z,28.8667,-90.4833,1014.56,11111222 
WAVCIS,ioos:station:WAVCIS:CSI06:1,2015-10-06T10:00:00Z,28.8667,-90.4833,1014.56,11111222 
WAVCIS,ioos:station:WAVCIS:CSI06:1,2015-10-06T11:00:00Z,28.8667,-90.4833,1015.0,11111222 
WAVCIS,ioos:station:WAVCIS:CSI06:1,2015-10-06T12:00:00Z,28.8667,-90.4833,1015.8,11111222 
WAVCIS,ioos:station:WAVCIS:CSI06:1,2015-10-06T13:00:00Z,28.8667,-90.4833,1016.19,11111222 
WAVCIS,ioos:station:WAVCIS:CSI06:1,2015-10-06T14:00:00Z,28.8667,-90.4833,1016.87,11111222 
WAVCIS,ioos:station:WAVCIS:CSI06:1,2015-10-06T15:00:00Z,28.8667,-90.4833,1017.36,11111222 
WAVCIS,ioos:station:WAVCIS:CSI06:1,2015-10-06T16:00:00Z,28.8667,-90.4833,1017.69,11111222 
WAVCIS,ioos:station:WAVCIS:CSI06:1,2015-10-06T17:00:00Z,28.8667,-90.4833,1017.49,11111222 
WAVCIS,ioos:station:WAVCIS:CSI06:1,2015-10-06T18:00:00Z,28.8667,-90.4833,1016.89,11111222 
WAVCIS,ioos:station:WAVCIS:CSI06:1,2015-10-06T19:00:00Z,28.8667,-90.4833,1016.13,11111222 
WAVCIS,ioos:station:WAVCIS:CSI06:1,2015-10-06T20:00:00Z,28.8667,-90.4833,1015.24,11111222 
WAVCIS,ioos:station:WAVCIS:CSI06:1,2015-10-06T21:00:00Z,28.8667,-90.4833,1014.72,11111222 
WAVCIS,ioos:station:WAVCIS:CSI06:1,2015-10-06T22:00:00Z,28.8667,-90.4833,1014.86,11111222 
WAVCIS,ioos:station:WAVCIS:CSI06:1,2015-10-06T23:00:00Z,28.8667,-90.4833,1014.62,11111222 
WAVCIS,ioos:station:WAVCIS:CSI06:1,2015-10-07T00:00:00Z,28.8667,-90.4833,1014.74,11111222 
WAVCIS,ioos:station:WAVCIS:CSI06:1,2015-10-07T01:00:00Z,28.8667,-90.4833,1015.16,11111222 
WAVCIS,ioos:station:WAVCIS:CSI06:1,2015-10-07T02:00:00Z,28.8667,-90.4833,1015.64,11111222 
WAVCIS,ioos:station:WAVCIS:CSI06:1,2015-10-07T03:00:00Z,28.8667,-90.4833,1015.94,11111222 
WAVCIS,ioos:station:WAVCIS:CSI06:1,2015-10-07T04:00:00Z,28.8667,-90.4833,1016.14,11111222 
WAVCIS,ioos:station:WAVCIS:CSI06:1,2015-10-07T05:00:00Z,28.8667,-90.4833,1015.95,11111222 
WAVCIS,ioos:station:WAVCIS:CSI06:1,2015-10-07T06:00:00Z,28.8667,-90.4833,1015.66,11111222 
WAVCIS,ioos:station:WAVCIS:CSI06:1,2015-10-07T07:00:00Z,28.8667,-90.4833,1015.13,11111222 
WAVCIS,ioos:station:WAVCIS:CSI06:1,2015-10-07T08:00:00Z,28.8667,-90.4833,1015.01,11111222 
WAVCIS,ioos:station:WAVCIS:CSI06:1,2015-10-07T09:00:00Z,28.8667,-90.4833,1014.8,11111222 
WAVCIS,ioos:station:WAVCIS:CSI06:1,2015-10-07T10:00:00Z,28.8667,-90.4833,1014.86,11111222 
WAVCIS,ioos:station:WAVCIS:CSI06:1,2015-10-07T11:00:00Z,28.8667,-90.4833,1015.32,11111222 
WAVCIS,ioos:station:WAVCIS:CSI06:1,2015-10-07T12:00:00Z,28.8667,-90.4833,1015.95,11111222 
WAVCIS,ioos:station:WAVCIS:CSI06:1,2015-10-07T13:00:00Z,28.8667,-90.4833,1016.4,11111222 
WAVCIS,ioos:station:WAVCIS:CSI06:1,2015-10-07T14:00:00Z,28.8667,-90.4833,1017.44,11111222 
WAVCIS,ioos:station:WAVCIS:CSI06:1,2015-10-07T15:00:00Z,28.8667,-90.4833,1017.6,11111222 
WAVCIS,ioos:station:WAVCIS:CSI06:1,2015-10-07T16:00:00Z,28.8667,-90.4833,1017.78,11111222 
WAVCIS,ioos:station:WAVCIS:CSI06:1,2015-10-07T17:00:00Z,28.8667,-90.4833,1017.7,11111222 
WAVCIS,ioos:station:WAVCIS:CSI06:1,2015-10-07T18:00:00Z,28.8667,-90.4833,1017.16,11111222 
WAVCIS,ioos:station:WAVCIS:CSI06:1,2015-10-07T19:00:00Z,28.8667,-90.4833,1016.67,11111222 
WAVCIS,ioos:station:WAVCIS:CSI06:1,2015-10-07T20:00:00Z,28.8667,-90.4833,1016.0,11111222 
WAVCIS,ioos:station:WAVCIS:CSI06:1,2015-10-07T21:00:00Z,28.8667,-90.4833,1015.57,11111222 
WAVCIS,ioos:station:WAVCIS:CSI06:1,2015-10-07T22:00:00Z,28.8667,-90.4833,1015.52,11111222 
WAVCIS,ioos:station:WAVCIS:CSI06:1,2015-10-07T23:00:00Z,28.8667,-90.4833,1015.4,11111222 
WAVCIS,ioos:station:WAVCIS:CSI06:1,2015-10-08T00:00:00Z,28.8667,-90.4833,1015.63,11111222 
WAVCIS,ioos:station:WAVCIS:CSI06:1,2015-10-08T01:00:00Z,28.8667,-90.4833,1015.95,11111222 
WAVCIS,ioos:station:WAVCIS:CSI06:1,2015-10-08T02:00:00Z,28.8667,-90.4833,1016.42,11111222 
WAVCIS,ioos:station:WAVCIS:CSI06:1,2015-10-08T03:00:00Z,28.8667,-90.4833,1016.76,11111222 
WAVCIS,ioos:station:WAVCIS:CSI06:1,2015-10-08T04:00:00Z,28.8667,-90.4833,1016.77,11111222 
WAVCIS,ioos:station:WAVCIS:CSI06:1,2015-10-08T05:00:00Z,28.8667,-90.4833,1016.43,11111222 
WAVCIS,ioos:station:WAVCIS:CSI06:1,2015-10-08T06:00:00Z,28.8667,-90.4833,1016.03,11111222 
WAVCIS,ioos:station:WAVCIS:CSI06:1,2015-10-08T07:00:00Z,28.8667,-90.4833,1015.91,11111222 
WAVCIS,ioos:station:WAVCIS:CSI06:1,2015-10-08T08:00:00Z,28.8667,-90.4833,1015.59,11111222 
WAVCIS,ioos:station:WAVCIS:CSI06:1,2015-10-08T09:00:00Z,28.8667,-90.4833,1015.41,11111222 
WAVCIS,ioos:station:WAVCIS:CSI06:1,2015-10-08T10:00:00Z,28.8667,-90.4833,1015.45,11111222 
WAVCIS,ioos:station:WAVCIS:CSI06:1,2015-10-08T11:00:00Z,28.8667,-90.4833,1015.78,11111222 
WAVCIS,ioos:station:WAVCIS:CSI06:1,2015-10-08T12:00:00Z,28.8667,-90.4833,1016.59,11111222 
WAVCIS,ioos:station:WAVCIS:CSI06:1,2015-10-08T13:00:00Z,28.8667,-90.4833,1017.06,11111222 
WAVCIS,ioos:station:WAVCIS:CSI06:1,2015-10-08T14:00:00Z,28.8667,-90.4833,1017.76,11111222 
WAVCIS,ioos:station:WAVCIS:CSI06:1,2015-10-08T15:00:00Z,28.8667,-90.4833,1018.04,11111222 
WAVCIS,ioos:station:WAVCIS:CSI06:1,2015-10-08T16:00:00Z,28.8667,-90.4833,1017.95,11111222 
WAVCIS,ioos:station:WAVCIS:CSI06:1,2015-10-08T17:00:00Z,28.8667,-90.4833,1017.88,11111222 
WAVCIS,ioos:station:WAVCIS:CSI06:1,2015-10-08T18:00:00Z,28.8667,-90.4833,1017.42,11111222 
WAVCIS,ioos:station:WAVCIS:CSI06:1,2015-10-08T19:00:00Z,28.8667,-90.4833,1016.66,11111222 
WAVCIS,ioos:station:WAVCIS:CSI06:1,2015-10-08T20:00:00Z,28.8667,-90.4833,1016.12,11111222 
WAVCIS,ioos:station:WAVCIS:CSI06:1,2015-10-08T21:00:00Z,28.8667,-90.4833,1015.73,11111222 
WAVCIS,ioos:station:WAVCIS:CSI06:1,2015-10-08T22:00:00Z,28.8667,-90.4833,1015.74,11111222 
WAVCIS,ioos:station:WAVCIS:CSI06:1,2015-10-08T23:00:00Z,28.8667,-90.4833,1015.78,11111222 
WAVCIS,ioos:station:WAVCIS:CSI06:1,2015-10-09T00:00:00Z,28.8667,-90.4833,1015.87,11111222 
WAVCIS,ioos:station:WAVCIS:CSI06:1,2015-10-09T01:00:00Z,28.8667,-90.4833,1016.09,11111222 
WAVCIS,ioos:station:WAVCIS:CSI06:1,2015-10-09T02:00:00Z,28.8667,-90.4833,1016.56,11111222 
WAVCIS,ioos:station:WAVCIS:CSI06:1,2015-10-09T03:00:00Z,28.8667,-90.4833,1017.15,11111222 
WAVCIS,ioos:station:WAVCIS:CSI06:1,2015-10-09T04:00:00Z,28.8667,-90.4833,1017.28,11111222 
WAVCIS,ioos:station:WAVCIS:CSI06:1,2015-10-09T05:00:00Z,28.8667,-90.4833,1017.09,11111222 
WAVCIS,ioos:station:WAVCIS:CSI06:1,2015-10-09T06:00:00Z,28.8667,-90.4833,1016.69,11111222 
WAVCIS,ioos:station:WAVCIS:CSI06:1,2015-10-09T07:00:00Z,28.8667,-90.4833,1016.44,11111222 
WAVCIS,ioos:station:WAVCIS:CSI06:1,2015-10-09T08:00:00Z,28.8667,-90.4833,1015.94,11111222 
WAVCIS,ioos:station:WAVCIS:CSI06:1,2015-10-09T09:00:00Z,28.8667,-90.4833,1016.16,11111222 
WAVCIS,ioos:station:WAVCIS:CSI06:1,2015-10-09T10:00:00Z,28.8667,-90.4833,1016.22,11111222 
WAVCIS,ioos:station:WAVCIS:CSI06:1,2015-10-09T11:00:00Z,28.8667,-90.4833,1016.59,11111222 
WAVCIS,ioos:station:WAVCIS:CSI06:1,2015-10-09T12:00:00Z,28.8667,-90.4833,1017.04,11111222 
WAVCIS,ioos:station:WAVCIS:CSI06:1,2015-10-09T13:00:00Z,28.8667,-90.4833,1017.76,11111222 
WAVCIS,ioos:station:WAVCIS:CSI06:1,2015-10-09T14:00:00Z,28.8667,-90.4833,1018.6,11111222 
WAVCIS,ioos:station:WAVCIS:CSI06:1,2015-10-09T15:00:00Z,28.8667,-90.4833,1019.08,11111222 
WAVCIS,ioos:station:WAVCIS:CSI06:1,2015-10-09T16:00:00Z,28.8667,-90.4833,1018.95,11111222 
WAVCIS,ioos:station:WAVCIS:CSI06:1,2015-10-09T17:00:00Z,28.8667,-90.4833,1018.67,11111222 
WAVCIS,ioos:station:WAVCIS:CSI06:1,2015-10-09T18:00:00Z,28.8667,-90.4833,1018.0,11111222 
WAVCIS,ioos:station:WAVCIS:CSI06:1,2015-10-09T19:00:00Z,28.8667,-90.4833,1017.18,11111222 
WAVCIS,ioos:station:WAVCIS:CSI06:1,2015-10-09T20:00:00Z,28.8667,-90.4833,1016.49,11111222 
WAVCIS,ioos:station:WAVCIS:CSI06:1,2015-10-09T21:00:00Z,28.8667,-90.4833,1016.37,11111222 
WAVCIS,ioos:station:WAVCIS:CSI06:1,2015-10-09T22:00:00Z,28.8667,-90.4833,1016.37,11111222 
WAVCIS,ioos:station:WAVCIS:CSI06:1,2015-10-09T23:00:00Z,28.8667,-90.4833,1016.39,11111222 
WAVCIS,ioos:station:WAVCIS:CSI06:1,2015-10-10T00:00:00Z,28.8667,-90.4833,1016.33,11111222 
WAVCIS,ioos:station:WAVCIS:CSI06:1,2015-10-10T01:00:00Z,28.8667,-90.4833,1016.96,11111222 
WAVCIS,ioos:station:WAVCIS:CSI06:1,2015-10-10T02:00:00Z,28.8667,-90.4833,1017.12,11111222 
WAVCIS,ioos:station:WAVCIS:CSI06:1,2015-10-10T03:00:00Z,28.8667,-90.4833,1017.65,11111222 
WAVCIS,ioos:station:WAVCIS:CSI06:1,2015-10-10T04:00:00Z,28.8667,-90.4833,1017.8,11111222 
WAVCIS,ioos:station:WAVCIS:CSI06:1,2015-10-10T05:00:00Z,28.8667,-90.4833,1017.49,11111222 
WAVCIS,ioos:station:WAVCIS:CSI06:1,2015-10-10T06:00:00Z,28.8667,-90.4833,1017.47,11111222 
WAVCIS,ioos:station:WAVCIS:CSI06:1,2015-10-10T07:00:00Z,28.8667,-90.4833,1017.04,11111222 
WAVCIS,ioos:station:WAVCIS:CSI06:1,2015-10-10T08:00:00Z,28.8667,-90.4833,1016.73,11111222 
WAVCIS,ioos:station:WAVCIS:CSI06:1,2015-10-10T09:00:00Z,28.8667,-90.4833,1016.98,11111222 
WAVCIS,ioos:station:WAVCIS:CSI06:1,2015-10-10T10:00:00Z,28.8667,-90.4833,1016.96,11111222 
WAVCIS,ioos:station:WAVCIS:CSI06:1,2015-10-10T11:00:00Z,28.8667,-90.4833,1017.2,11111222 
WAVCIS,ioos:station:WAVCIS:CSI06:1,2015-10-10T12:00:00Z,28.8667,-90.4833,1017.37,11111222 
WAVCIS,ioos:station:WAVCIS:CSI06:1,2015-10-10T13:00:00Z,28.8667,-90.4833,1017.64,11111222 
WAVCIS,ioos:station:WAVCIS:CSI06:1,2015-10-10T14:00:00Z,28.8667,-90.4833,1018.07,11111222 
WAVCIS,ioos:station:WAVCIS:CSI06:1,2015-10-10T15:00:00Z,28.8667,-90.4833,1018.34,11111222 
WAVCIS,ioos:station:WAVCIS:CSI06:1,2015-10-10T16:00:00Z,28.8667,-90.4833,1018.54,11111222 
WAVCIS,ioos:station:WAVCIS:CSI06:1,2015-10-10T17:00:00Z,28.8667,-90.4833,1018.12,11111222 
WAVCIS,ioos:station:WAVCIS:CSI06:1,2015-10-10T18:00:00Z,28.8667,-90.4833,1017.37,11111222 
WAVCIS,ioos:station:WAVCIS:CSI06:1,2015-10-10T19:00:00Z,28.8667,-90.4833,1016.46,11111222 
WAVCIS,ioos:station:WAVCIS:CSI06:1,2015-10-10T20:00:00Z,28.8667,-90.4833,1015.93,11111222 
WAVCIS,ioos:station:WAVCIS:CSI06:1,2015-10-10T21:00:00Z,28.8667,-90.4833,1015.51,11111222 
WAVCIS,ioos:station:WAVCIS:CSI06:1,2015-10-10T22:00:00Z,28.8667,-90.4833,1015.21,11111222 
WAVCIS,ioos:station:WAVCIS:CSI06:1,2015-10-10T23:00:00Z,28.8667,-90.4833,1015.22,11111222 
WAVCIS,ioos:station:WAVCIS:CSI06:1,2015-10-11T00:00:00Z,28.8667,-90.4833,1015.42,11111222 
WAVCIS,ioos:station:WAVCIS:CSI06:1,2015-10-11T01:00:00Z,28.8667,-90.4833,1015.85,11111222 
WAVCIS,ioos:station:WAVCIS:CSI06:1,2015-10-11T02:00:00Z,28.8667,-90.4833,1016.49,11111222 
WAVCIS,ioos:station:WAVCIS:CSI06:1,2015-10-11T03:00:00Z,28.8667,-90.4833,1016.99,11111222 
WAVCIS,ioos:station:WAVCIS:CSI06:1,2015-10-11T04:00:00Z,28.8667,-90.4833,1016.99,11111222 
WAVCIS,ioos:station:WAVCIS:CSI06:1,2015-10-11T05:00:00Z,28.8667,-90.4833,1016.58,11111222 
WAVCIS,ioos:station:WAVCIS:CSI06:1,2015-10-11T06:00:00Z,28.8667,-90.4833,1016.22,11111222 
WAVCIS,ioos:station:WAVCIS:CSI06:1,2015-10-11T07:00:00Z,28.8667,-90.4833,1016.34,11111222 
WAVCIS,ioos:station:WAVCIS:CSI06:1,2015-10-11T08:00:00Z,28.8667,-90.4833,1016.06,11111222 
WAVCIS,ioos:station:WAVCIS:CSI06:1,2015-10-11T09:00:00Z,28.8667,-90.4833,1015.73,11111222 
WAVCIS,ioos:station:WAVCIS:CSI06:1,2015-10-11T10:00:00Z,28.8667,-90.4833,1015.76,11111222 
WAVCIS,ioos:station:WAVCIS:CSI06:1,2015-10-11T11:00:00Z,28.8667,-90.4833,1015.8,11111222 
WAVCIS,ioos:station:WAVCIS:CSI06:1,2015-10-11T12:00:00Z,28.8667,-90.4833,1016.18,11111222 
WAVCIS,ioos:station:WAVCIS:CSI06:1,2015-10-11T13:00:00Z,28.8667,-90.4833,1016.51,11111222 
WAVCIS,ioos:station:WAVCIS:CSI06:1,2015-10-11T14:00:00Z,28.8667,-90.4833,1017.08,11111222 
WAVCIS,ioos:station:WAVCIS:CSI06:1,2015-10-11T15:00:00Z,28.8667,-90.4833,1017.44,11111222 
WAVCIS,ioos:station:WAVCIS:CSI06:1,2015-10-11T16:00:00Z,28.8667,-90.4833,1017.35,11111222 
WAVCIS,ioos:station:WAVCIS:CSI06:1,2015-10-11T17:00:00Z,28.8667,-90.4833,1016.98,11111222 
WAVCIS,ioos:station:WAVCIS:CSI06:1,2015-10-11T18:00:00Z,28.8667,-90.4833,1016.27,11111222 
WAVCIS,ioos:station:WAVCIS:CSI06:1,2015-10-11T19:00:00Z,28.8667,-90.4833,1015.25,11111222 
WAVCIS,ioos:station:WAVCIS:CSI06:1,2015-10-11T20:00:00Z,28.8667,-90.4833,1014.19,11111222 
WAVCIS,ioos:station:WAVCIS:CSI06:1,2015-10-11T21:00:00Z,28.8667,-90.4833,1014.02,11111222 
WAVCIS,ioos:station:WAVCIS:CSI06:1,2015-10-11T22:00:00Z,28.8667,-90.4833,1013.55,11111222 